| time (UTC) | temp C | wind direction | speed KPH | gust KPH | rain 1hr cm | rain 24hr cm | rain mn cm | humidity % | barometer mb |
| 20260504003506 | 19 | 211 | 0.0 | 0.0 | 0.00 | 0.03 | 0.03 | 41 | 1016.2 |
| 20260504003005 | 19 | 211 | 0.0 | 0.0 | 0.00 | 0.03 | 0.03 | 41 | 1016.2 |
| 20260504002506 | 20 | 211 | 0.0 | 1.6 | 0.00 | 0.03 | 0.03 | 39 | 1016.1 |
| 20260504002005 | 20 | 211 | 1.6 | 3.2 | 0.00 | 0.03 | 0.03 | 37 | 1016.1 |
| 20260504001505 | 20 | 211 | 1.6 | 3.2 | 0.00 | 0.03 | 0.03 | 36 | 1016.0 |
| 20260504001006 | 20 | 211 | 0.0 | 3.2 | 0.00 | 0.03 | 0.03 | 36 | 1016.0 |
| 20260504000506 | 20 | 211 | 0.0 | 1.6 | 0.00 | 0.03 | 0.03 | 36 | 1016.1 |
| 20260504000006 | 20 | 211 | 0.0 | 1.6 | 0.00 | 0.03 | 0.03 | 36 | 1016.1 |
| 20260503235005 | 21 | 209 | 1.6 | 4.8 | 0.00 | 0.03 | 0.03 | 34 | 1016.0 |
| 20260503234505 | 21 | 227 | 3.2 | 4.8 | 0.00 | 0.03 | 0.03 | 34 | 1015.9 |
| 20260503234006 | 21 | 221 | 1.6 | 4.8 | 0.00 | 0.03 | 0.03 | 35 | 1015.9 |
| 20260503233505 | 21 | 235 | 1.6 | 4.8 | 0.00 | 0.03 | 0.03 | 34 | 1016.1 |
| 20260503232505 | 21 | 274 | 0.0 | 4.8 | 0.00 | 0.03 | 0.03 | 36 | 1016.0 |
| 20260503232005 | 21 | 248 | 4.8 | 9.7 | 0.00 | 0.03 | 0.03 | 35 | 1015.9 |
| 20260503231505 | 22 | 212 | 8.0 | 14.5 | 0.00 | 0.03 | 0.03 | 33 | 1016.0 |
| 20260503231005 | 22 | 199 | 1.6 | 8.0 | 0.00 | 0.03 | 0.03 | 34 | 1016.1 |
| 20260503230505 | 22 | 308 | 3.2 | 4.8 | 0.00 | 0.03 | 0.03 | 34 | 1016.1 |
| 20260503225505 | 22 | 343 | 3.2 | 8.0 | 0.00 | 0.03 | 0.03 | 35 | 1016.1 |
| 20260503224506 | 22 | 338 | 3.2 | 8.0 | 0.00 | 0.03 | 0.03 | 36 | 1016.1 |
| 20260503224005 | 22 | 307 | 3.2 | 8.0 | 0.00 | 0.03 | 0.03 | 37 | 1016.2 |
| 20260503223506 | 22 | 346 | 4.8 | 8.0 | 0.00 | 0.03 | 0.03 | 36 | 1016.1 |
| 20260503223005 | 22 | 323 | 3.2 | 8.0 | 0.00 | 0.03 | 0.03 | 37 | 1016.2 |
| 20260503222505 | 22 | 311 | 3.2 | 4.8 | 0.00 | 0.03 | 0.03 | 36 | 1016.2 |
| 20260503222005 | 22 | 338 | 3.2 | 9.7 | 0.00 | 0.03 | 0.03 | 37 | 1016.3 |
| 20260503221505 | 22 | 311 | 3.2 | 4.8 | 0.00 | 0.03 | 0.03 | 36 | 1016.2 |
| 20260503221005 | 22 | 329 | 3.2 | 9.7 | 0.00 | 0.03 | 0.03 | 37 | 1016.2 |
| 20260503220505 | 22 | 286 | 3.2 | 4.8 | 0.00 | 0.03 | 0.03 | 35 | 1016.2 |
| 20260503220005 | 22 | 235 | 4.8 | 11.3 | 0.00 | 0.03 | 0.03 | 35 | 1016.3 |
| 20260503215505 | 22 | 330 | 4.8 | 16.1 | 0.00 | 0.03 | 0.03 | 36 | 1016.2 |
| 20260503215005 | 22 | 332 | 8.0 | 19.3 | 0.00 | 0.03 | 0.03 | 34 | 1016.3 |
| 20260503214005 | 22 | 304 | 1.6 | 4.8 | 0.00 | 0.03 | 0.03 | 36 | 1016.3 |
| 20260503213006 | 22 | 351 | 4.8 | 9.7 | 0.00 | 0.03 | 0.03 | 36 | 1016.4 |
| 20260503212505 | 22 | 245 | 1.6 | 12.9 | 0.00 | 0.03 | 0.03 | 35 | 1016.3 |
| 20260503212005 | 22 | 220 | 6.4 | 12.9 | 0.00 | 0.03 | 0.03 | 36 | 1016.4 |
| 20260503211505 | 22 | 346 | 3.2 | 9.7 | 0.00 | 0.03 | 0.03 | 35 | 1016.4 |
| 20260503211005 | 21 | 344 | 6.4 | 14.5 | 0.00 | 0.03 | 0.03 | 36 | 1016.3 |
| 20260503210005 | 21 | 317 | 8.0 | 19.3 | 0.00 | 0.03 | 0.03 | 38 | 1016.4 |
| 20260503205005 | 22 | 332 | 6.4 | 12.9 | 0.00 | 0.03 | 0.03 | 37 | 1016.4 |
| 20260503204504 | 22 | 320 | 4.8 | 12.9 | 0.00 | 0.03 | 0.03 | 37 | 1016.5 |
| 20260503203505 | 22 | 353 | 4.8 | 12.9 | 0.00 | 0.03 | 0.03 | 37 | 1016.7 |
| 20260503202505 | 22 | 271 | 4.8 | 14.5 | 0.00 | 0.03 | 0.03 | 33 | 1016.8 |
| 20260503202005 | 22 | 275 | 4.8 | 9.7 | 0.00 | 0.03 | 0.03 | 35 | 1016.8 |
| 20260503201505 | 22 | 256 | 3.2 | 9.7 | 0.00 | 0.03 | 0.03 | 36 | 1016.8 |
| 20260503201005 | 22 | 213 | 4.8 | 9.7 | 0.00 | 0.03 | 0.03 | 34 | 1017.0 |
| 20260503200005 | 22 | 130 | 1.6 | 4.8 | 0.00 | 0.03 | 0.03 | 38 | 1017.1 |
| 20260503195504 | 21 | 203 | 4.8 | 9.7 | 0.00 | 0.03 | 0.03 | 38 | 1017.2 |
| 20260503195005 | 21 | 227 | 8.0 | 14.5 | 0.00 | 0.03 | 0.03 | 39 | 1017.2 |
| 20260503194505 | 21 | 225 | 4.8 | 19.3 | 0.00 | 0.03 | 0.03 | 37 | 1017.4 |
| 20260503194004 | 21 | 226 | 3.2 | 11.3 | 0.00 | 0.03 | 0.03 | 36 | 1017.5 |
| 20260503193505 | 21 | 313 | 6.4 | 12.9 | 0.00 | 0.03 | 0.03 | 38 | 1017.6 |
| 20260503193005 | 21 | 218 | 9.7 | 19.3 | 0.00 | 0.03 | 0.03 | 38 | 1017.7 |
| 20260503192505 | 21 | 276 | 3.2 | 11.3 | 0.00 | 0.03 | 0.03 | 38 | 1017.8 |
| 20260503192005 | 21 | 309 | 4.8 | 16.1 | 0.00 | 0.03 | 0.03 | 39 | 1017.9 |
| 20260503191005 | 21 | 317 | 4.8 | 16.1 | 0.00 | 0.03 | 0.03 | 40 | 1018.1 |
| 20260503190505 | 21 | 351 | 4.8 | 12.9 | 0.00 | 0.03 | 0.03 | 41 | 1018.2 |
| 20260503190004 | 21 | 286 | 3.2 | 14.5 | 0.00 | 0.03 | 0.03 | 43 | 1018.3 |
| 20260503185005 | 21 | 334 | 4.8 | 8.0 | 0.00 | 0.03 | 0.03 | 40 | 1018.5 |
| 20260503184504 | 21 | 36 | 3.2 | 16.1 | 0.00 | 0.03 | 0.03 | 39 | 1018.6 |
| 20260503184005 | 21 | 332 | 4.8 | 16.1 | 0.00 | 0.03 | 0.03 | 41 | 1018.6 |
| 20260503183504 | 20 | 19 | 3.2 | 4.8 | 0.00 | 0.03 | 0.03 | 41 | 1018.6 |
| 20260503183005 | 20 | 213 | 3.2 | 11.3 | 0.00 | 0.03 | 0.03 | 41 | 1018.7 |
| 20260503182505 | 20 | 326 | 4.8 | 12.9 | 0.00 | 0.03 | 0.03 | 41 | 1018.9 |
| 20260503182006 | 20 | 334 | 8.0 | 19.3 | 0.00 | 0.03 | 0.03 | 40 | 1018.9 |
| 20260503181005 | 20 | 278 | 4.8 | 9.7 | 0.00 | 0.03 | 0.03 | 39 | 1019.0 |
| 20260503180505 | 20 | 328 | 8.0 | 14.5 | 0.00 | 0.03 | 0.03 | 40 | 1019.0 |
| 20260503180005 | 20 | 351 | 4.8 | 16.1 | 0.00 | 0.03 | 0.03 | 40 | 1019.1 |
| 20260503175504 | 20 | 161 | 3.2 | 8.0 | 0.00 | 0.03 | 0.03 | 39 | 1019.1 |
| 20260503174505 | 20 | 207 | 4.8 | 9.7 | 0.00 | 0.03 | 0.03 | 37 | 1019.2 |
| 20260503173505 | 20 | 259 | 4.8 | 12.9 | 0.00 | 0.03 | 0.03 | 38 | 1019.2 |
| 20260503173004 | 20 | 199 | 4.8 | 14.5 | 0.00 | 0.03 | 0.03 | 40 | 1019.2 |
| 20260503171504 | 19 | 238 | 3.2 | 14.5 | 0.00 | 0.03 | 0.03 | 43 | 1019.3 |
| 20260503171005 | 19 | 124 | 4.8 | 12.9 | 0.00 | 0.03 | 0.03 | 41 | 1019.3 |
| 20260503151004 | 16 | 62 | 3.2 | 4.8 | 0.00 | 0.05 | 0.03 | 57 | 1020.2 |
| 20260503150504 | 16 | 346 | 3.2 | 4.8 | 0.00 | 0.05 | 0.03 | 62 | 1020.2 |
| 20260503131004 | 11 | 308 | 4.8 | 11.3 | 0.00 | 0.20 | 0.03 | 96 | 1019.8 |
| 20260503130504 | 11 | 310 | 4.8 | 4.8 | 0.00 | 0.20 | 0.03 | 96 | 1019.6 |
| 20260503110507 | 8 | 330 | 0.0 | 1.6 | 0.00 | 0.51 | 0.03 | 95 | 1018.6 |
| 20260503090507 | 10 | 209 | 0.0 | 3.2 | 0.00 | 0.66 | 0.03 | 95 | 1017.3 |
| 20260503081507 | 10 | 221 | 0.0 | 0.0 | 0.03 | 0.86 | 0.03 | 95 | 1017.0 |
| 20260503081006 | 9 | 221 | 0.0 | 0.0 | 0.03 | 0.89 | 0.03 | 95 | 1017.0 |
| 20260503080506 | 9 | 221 | 0.0 | 0.0 | 0.03 | 0.94 | 0.03 | 95 | 1016.9 |
| 20260503072507 | 9 | 221 | 0.0 | 0.0 | 0.00 | 1.12 | 0.00 | 94 | 1016.7 |
| 20260503071507 | 10 | 221 | 0.0 | 0.0 | 0.00 | 1.14 | 0.00 | 94 | 1016.7 |
| 20260503071006 | 10 | 221 | 0.0 | 0.0 | 0.00 | 1.19 | 0.00 | 95 | 1016.6 |
| 20260503055006 | 11 | 221 | 0.0 | 0.0 | 0.00 | 1.30 | 0.00 | 94 | 1016.3 |
| 20260503054506 | 11 | 221 | 0.0 | 0.0 | 0.00 | 1.30 | 0.00 | 94 | 1016.3 |
| 20260503054006 | 11 | 221 | 0.0 | 1.6 | 0.00 | 1.30 | 0.00 | 94 | 1016.3 |
| 20260503053007 | 11 | 216 | 1.6 | 4.8 | 0.00 | 1.30 | 0.00 | 94 | 1016.3 |
| 20260503052007 | 11 | 275 | 0.0 | 1.6 | 0.00 | 1.30 | 0.00 | 94 | 1016.3 |
| 20260503051006 | 11 | 355 | 0.0 | 1.6 | 0.00 | 1.30 | 0.00 | 94 | 1016.3 |
| 20260503050506 | 11 | 5 | 0.0 | 0.0 | 0.00 | 1.30 | 0.00 | 93 | 1016.3 |
| 20260503050006 | 11 | 5 | 0.0 | 0.0 | 0.00 | 1.30 | 0.00 | 93 | 1016.3 |
| 20260503045507 | 11 | 5 | 0.0 | 0.0 | 0.00 | 1.30 | 0.00 | 93 | 1016.3 |
| 20260503045006 | 11 | 5 | 0.0 | 1.6 | 0.00 | 1.30 | 0.00 | 93 | 1016.3 |
| 20260503044506 | 11 | 5 | 0.0 | 0.0 | 0.00 | 1.30 | 0.00 | 93 | 1016.3 |
| 20260503044007 | 11 | 5 | 0.0 | 0.0 | 0.00 | 1.30 | 0.00 | 93 | 1016.3 |
| 20260503043006 | 12 | 5 | 0.0 | 0.0 | 0.00 | 1.30 | 0.00 | 92 | 1016.1 |
| 20260503042506 | 12 | 5 | 0.0 | 0.0 | 0.00 | 1.30 | 0.00 | 93 | 1016.0 |
| 20260503041006 | 12 | 5 | 0.0 | 1.6 | 0.00 | 1.30 | 0.00 | 92 | 1016.0 |
| 20260503040507 | 12 | 355 | 0.0 | 0.0 | 0.00 | 1.30 | 0.00 | 92 | 1016.0 |
| 20260503035006 | 12 | 355 | 0.0 | 0.0 | 0.00 | 1.30 | 1.30 | 92 | 1015.9 |
| 20260503034506 | 12 | 355 | 0.0 | 0.0 | 0.00 | 1.30 | 1.30 | 92 | 1015.8 |
| 20260503034006 | 12 | 355 | 0.0 | 1.6 | 0.00 | 1.30 | 1.30 | 92 | 1015.9 |
| 20260503033507 | 12 | 355 | 0.0 | 0.0 | 0.00 | 1.30 | 1.30 | 92 | 1015.9 |
| 20260503033006 | 12 | 355 | 0.0 | 0.0 | 0.00 | 1.30 | 1.30 | 92 | 1015.9 |
| 20260503032506 | 12 | 355 | 0.0 | 0.0 | 0.00 | 1.30 | 1.30 | 92 | 1016.0 |
| 20260503032006 | 12 | 355 | 0.0 | 1.6 | 0.00 | 1.30 | 1.30 | 93 | 1016.1 |
| 20260503031506 | 12 | 0 | 0.0 | 1.6 | 0.00 | 1.30 | 1.30 | 92 | 1016.1 |
| 20260503031006 | 12 | 0 | 0.0 | 3.2 | 0.00 | 1.30 | 1.30 | 92 | 1016.1 |
| 20260503030506 | 12 | 355 | 0.0 | 4.8 | 0.00 | 1.30 | 1.30 | 92 | 1016.0 |
| 20260503030006 | 12 | 338 | 1.6 | 4.8 | 0.00 | 1.30 | 1.30 | 92 | 1016.0 |
| 20260503025506 | 12 | 355 | 1.6 | 4.8 | 0.00 | 1.30 | 1.30 | 92 | 1016.0 |
| 20260503025006 | 12 | 296 | 0.0 | 0.0 | 0.00 | 1.30 | 1.30 | 92 | 1015.6 |
| 20260503024506 | 12 | 296 | 0.0 | 0.0 | 0.00 | 1.30 | 1.30 | 92 | 1015.5 |
| 20260503024006 | 12 | 296 | 0.0 | 1.6 | 0.00 | 1.30 | 1.30 | 92 | 1015.5 |
| 20260503023506 | 12 | 296 | 0.0 | 0.0 | 0.00 | 1.30 | 1.30 | 92 | 1015.4 |
| 20260503023006 | 12 | 296 | 0.0 | 1.6 | 0.00 | 1.30 | 1.30 | 92 | 1015.4 |
| 20260503022506 | 12 | 296 | 0.0 | 1.6 | 0.00 | 1.30 | 1.30 | 92 | 1015.3 |
| 20260503022006 | 12 | 296 | 1.6 | 1.6 | 0.00 | 1.30 | 1.30 | 91 | 1015.3 |
| 20260503021506 | 12 | 296 | 0.0 | 1.6 | 0.00 | 1.30 | 1.30 | 91 | 1015.2 |
| 20260503021005 | 12 | 296 | 1.6 | 3.2 | 0.00 | 1.30 | 1.30 | 91 | 1015.0 |
| 20260503020006 | 12 | 128 | 0.0 | 1.6 | 0.00 | 1.30 | 1.30 | 90 | 1014.5 |
| 20260503015506 | 12 | 128 | 0.0 | 3.2 | 0.00 | 1.30 | 1.30 | 90 | 1014.4 |
| 20260503015006 | 13 | 132 | 0.0 | 3.2 | 0.00 | 1.30 | 1.30 | 90 | 1014.3 |
| 20260503014505 | 13 | 123 | 0.0 | 1.6 | 0.00 | 1.30 | 1.30 | 90 | 1014.2 |
| 20260503014006 | 13 | 123 | 1.6 | 4.8 | 0.00 | 1.30 | 1.30 | 90 | 1014.0 |
| 20260503013006 | 13 | 298 | 3.2 | 4.8 | 0.00 | 1.30 | 1.30 | 89 | 1014.0 |
| 20260503012506 | 13 | 267 | 0.0 | 3.2 | 0.00 | 1.30 | 1.30 | 88 | 1013.9 |
| 20260503012006 | 13 | 198 | 0.0 | 1.6 | 0.00 | 1.30 | 1.30 | 88 | 1013.9 |
| 20260503011506 | 13 | 198 | 0.0 | 1.6 | 0.00 | 1.30 | 1.30 | 89 | 1013.7 |
| 20260503010505 | 13 | 141 | 0.0 | 1.6 | 0.00 | 1.30 | 1.30 | 88 | 1013.6 |
| 20260503010005 | 13 | 128 | 0.0 | 1.6 | 0.00 | 1.30 | 1.30 | 88 | 1013.4 |
| 20260503005505 | 13 | 129 | 1.6 | 4.8 | 0.00 | 1.30 | 1.30 | 88 | 1013.1 |
| 20260503005006 | 13 | 148 | 0.0 | 3.2 | 0.00 | 1.30 | 1.30 | 88 | 1013.0 |
| 20260503004505 | 13 | 125 | 1.6 | 4.8 | 0.00 | 1.30 | 1.30 | 87 | 1012.9 |
| 20260503004006 | 13 | 123 | 1.6 | 3.2 | 0.00 | 1.30 | 1.30 | 87 | 1013.0 |